カタログに戻る

STARLINK-3055

運用中通信VLEO
NORAD 49137·PAYLOAD·🇺🇸 United States

打ち上げ Sep 14, 2021 から Vandenberg Space Force Base

Loading…

次のパス (今後24時間)

TLE

最新Source: CelesTrak SupGP

元期: Sep 14, 2026, 21:23 UTC

1 49137C 21082H   26257.89145833 -.00044547  00000+0 -38118-2 0  2575
2 49137  70.0013 158.7976 0002836 270.4516 330.4392 14.97546996    19

AllMySatでSTARLINK-3055をリアルタイム追跡

Download on the App Store